Weather History for Charles City, IA

Change the Weather History Date:

Friday, February 1, 2013

  Actual Average Record
Temperature  
Mean Temperature 0 °F -  
Max Temperature 10 °F 26 °F 44 °F (1987)
Min Temperature -9 °F 7 °F -21 °F (1951)
Degree Days  
Heating Degree Days 64    
Moisture  
Dew Point -9 °F    
Average Humidity 67    
Maximum Humidity 85    
Minimum Humidity 55    
Precipitation  
Precipitation 0.00 in - - ()
Sea Level Pressure  
Sea Level Pressure 30.20 in    
Wind  
Wind Speed 12 mph (SW)    
Max Wind Speed 20 mph    
Max Gust Speed 23 mph    
Visibility 9 miles    
Events Snow    
Averages and records for this station are not official NWS values.
T = Trace of Precipitation, MM = Missing Value Source: NWS Daily Summary

Daily Weather History Graph

Daily Weather History Graph

Search for Another Location

Airport:

Trip Planner

Search our weather history database for the weather conditions in past years. The results will help you decide how hot, cold, wet, or windy it might be!

Date:

Astronomy

Feb. 01, 2013 Rise Set
Actual Time 7:25 AM CST 5:23 PM CST
Civil Twilight 6:55 AM CST 5:53 PM CST
Nautical Twilight 6:21 AM CST 6:27 PM CST
Astronomical Twilight 5:47 AM CST 7:00 PM CST
Moon 11:42 PM CST (2/1) 9:48 AM CST (2/1)
Length of Visible Light 10h 58m
Length of Day
9h 58m
Waning Gibbous, 70% of the Moon is Illuminated
Feb 1
Waning Gibbous
Feb 3
Last Quarter
Feb 10
New
Feb 17
First Quarter
Feb 25
Full

Hourly Weather History & Observations

Time (CST) Temp. Windchill Dew Point Humidity Pressure Visibility Wind Dir Wind Speed Gust Speed Precip Events Conditions
12:15 AM -5.8 °F -29.4 °F -14.8 °F 65% 30.27 in 10.0 mi WNW 19.6 mph - N/A   Scattered Clouds
1:15 AM -5.8 °F -27.5 °F -16.6 °F 60% 30.28 in 10.0 mi WNW 16.1 mph 23.0 mph N/A   Partly Cloudy
1:35 AM -7.6 °F -29.8 °F -16.6 °F 65% 30.28 in 10.0 mi NW 16.1 mph - N/A   Partly Cloudy
1:55 AM -7.6 °F -26.6 °F -16.6 °F 65% 30.28 in 10.0 mi WNW 11.5 mph - N/A   Partly Cloudy
2:15 AM -7.6 °F -28.3 °F -16.6 °F 65% 30.29 in 10.0 mi WNW 13.8 mph - N/A   Scattered Clouds
2:35 AM -7.6 °F -27.5 °F -16.6 °F 65% 30.29 in 10.0 mi WNW 12.7 mph - N/A   Scattered Clouds
2:55 AM -7.6 °F -28.3 °F -16.6 °F 65% 30.29 in 10.0 mi WNW 13.8 mph - N/A   Scattered Clouds
3:15 AM -7.6 °F -27.5 °F -16.6 °F 65% 30.29 in 10.0 mi WNW 12.7 mph - N/A   Partly Cloudy
3:35 AM -7.6 °F -26.6 °F -18.4 °F 59% 30.29 in 10.0 mi WNW 11.5 mph 18.4 mph N/A   Partly Cloudy
3:55 AM -7.6 °F -28.3 °F -18.4 °F 59% 30.29 in 10.0 mi NW 13.8 mph - N/A   Clear
4:15 AM -7.6 °F -28.3 °F -18.4 °F 59% 30.29 in 10.0 mi WNW 13.8 mph - N/A   Clear
4:35 AM -7.6 °F -27.5 °F -18.4 °F 59% 30.30 in 10.0 mi WNW 12.7 mph - N/A   Clear
4:55 AM -9.4 °F -27.9 °F -18.4 °F 65% 30.30 in 10.0 mi WNW 10.4 mph - N/A   Clear
5:15 AM -9.4 °F -27.9 °F -18.4 °F 65% 30.31 in 10.0 mi WNW 10.4 mph - N/A   Clear
5:35 AM -9.4 °F -26.8 °F -18.4 °F 65% 30.31 in 10.0 mi WNW 9.2 mph - N/A   Clear
5:55 AM -9.4 °F -28.9 °F -18.4 °F 65% 30.31 in 10.0 mi WNW 11.5 mph - N/A   Clear
6:15 AM -9.4 °F -26.8 °F -18.4 °F 65% 30.30 in 10.0 mi WNW 9.2 mph - N/A   Clear
6:35 AM -9.4 °F -25.6 °F -18.4 °F 65% 30.29 in 10.0 mi NW 8.1 mph - N/A   Clear
6:55 AM -9.4 °F -24.3 °F -18.4 °F 65% 30.30 in 10.0 mi WNW 6.9 mph - N/A   Clear
7:15 AM -9.4 °F -24.3 °F -18.4 °F 65% 30.30 in 10.0 mi WNW 6.9 mph - N/A   Clear
7:35 AM -9.4 °F -22.7 °F -18.4 °F 65% 30.30 in 10.0 mi WNW 5.8 mph - N/A   Clear
8:15 AM -7.6 °F -23.4 °F -16.6 °F 65% 30.29 in 10.0 mi West 8.1 mph - N/A   Clear
8:35 AM -7.6 °F -25.7 °F -16.6 °F 65% 30.31 in 10.0 mi West 10.4 mph - N/A   Clear
9:15 AM -5.8 °F -22.4 °F -16.6 °F 60% 30.30 in 10.0 mi West 9.2 mph - N/A   Clear
9:35 AM -4.0 °F -20.2 °F -16.6 °F 55% 30.30 in 10.0 mi West 9.2 mph - N/A   Clear
9:55 AM -4.0 °F -21.2 °F -16.6 °F 55% 30.30 in 10.0 mi West 10.4 mph - N/A   Clear
10:15 AM -4.0 °F -17.8 °F -16.6 °F 55% 30.30 in 10.0 mi WSW 6.9 mph - N/A   Clear
10:35 AM -2.2 °F -15.6 °F -14.8 °F 55% 30.30 in 10.0 mi West 6.9 mph - N/A   Clear
11:15 AM -2.2 °F -14.2 °F -13.0 °F 60% 30.29 in 10.0 mi WSW 5.8 mph - N/A   Clear
11:35 AM -0.4 °F -16.7 °F -13.0 °F 55% 30.29 in 10.0 mi SW 10.4 mph - N/A   Clear
11:55 AM -0.4 °F -14.7 °F -11.2 °F 60% 30.27 in 10.0 mi SW 8.1 mph - N/A   Clear
12:15 PM 1.4 °F -14.5 °F -9.4 °F 61% 30.27 in 10.0 mi SSW 10.4 mph - N/A   Clear
12:35 PM 1.4 °F -15.3 °F -9.4 °F 61% 30.25 in 10.0 mi SSW 11.5 mph - N/A   Clear
12:55 PM 1.4 °F -14.5 °F -9.4 °F 61% 30.24 in 10.0 mi SSW 10.4 mph - N/A   Partly Cloudy
1:15 PM 3.2 °F -13.1 °F -9.4 °F 56% 30.22 in 10.0 mi SSW 11.5 mph - N/A   Clear
1:35 PM 3.2 °F -12.2 °F -7.6 °F 61% 30.21 in 10.0 mi South 10.4 mph - N/A   Clear
1:55 PM 5.0 °F -10.0 °F -5.8 °F 61% 30.21 in 10.0 mi SSW 10.4 mph - N/A   Mostly Cloudy
2:15 PM 5.0 °F -10.8 °F -5.8 °F 61% 30.20 in 10.0 mi South 11.5 mph - N/A   Overcast
2:35 PM 5.0 °F -10.0 °F -5.8 °F 61% 30.18 in 10.0 mi SSW 10.4 mph - N/A   Overcast
2:55 PM 6.8 °F -7.8 °F -5.8 °F 56% 30.18 in 10.0 mi SSW 10.4 mph - N/A   Overcast
3:15 PM 6.8 °F -9.3 °F -4.0 °F 61% 30.17 in 10.0 mi South 12.7 mph - N/A   Overcast
3:35 PM 6.8 °F -10.0 °F -4.0 °F 61% 30.16 in 10.0 mi South 13.8 mph - N/A   Mostly Cloudy
4:15 PM 6.8 °F -10.7 °F -2.2 °F 67% 30.13 in 10.0 mi South 15.0 mph - N/A   Mostly Cloudy
4:35 PM 6.8 °F -10.7 °F -2.2 °F 67% 30.12 in 10.0 mi South 15.0 mph - N/A   Mostly Cloudy
5:15 PM 5.0 °F -13.6 °F -2.2 °F 72% 30.11 in 10.0 mi South 16.1 mph - N/A   Overcast
5:35 PM 5.0 °F -13.6 °F -2.2 °F 72% 30.11 in 8.0 mi South 16.1 mph - N/A   Overcast
5:55 PM 5.0 °F -11.6 °F -2.2 °F 72% 30.10 in 3.0 mi South 12.7 mph - N/A Snow Light Snow
6:15 PM 5.0 °F -12.3 °F -0.4 °F 78% 30.10 in 1.5 mi South 13.8 mph - N/A Snow Light Snow
6:35 PM 5.0 °F -10.8 °F -0.4 °F 78% 30.09 in 1.2 mi South 11.5 mph - N/A Snow Light Snow
6:55 PM 5.0 °F -10.8 °F -0.4 °F 78% 30.08 in 0.8 mi South 11.5 mph - N/A Snow Light Snow
7:15 PM 5.0 °F -11.6 °F -0.4 °F 78% 30.09 in 2.5 mi South 12.7 mph - N/A Snow Light Snow
7:35 PM 6.8 °F -9.3 °F 1.4 °F 79% 30.08 in 2.5 mi South 12.7 mph - N/A Snow Light Snow
7:55 PM 6.8 °F -4.8 °F 1.4 °F 79% 30.09 in 2.0 mi SSE 6.9 mph - N/A Snow Light Snow
8:15 PM 6.8 °F -6.9 °F 1.4 °F 79% 30.07 in 1.5 mi SSE 9.2 mph - N/A Snow Light Snow
8:35 PM 6.8 °F -6.9 °F 1.4 °F 79% 30.07 in 2.0 mi SSE 9.2 mph - N/A Snow Light Snow
8:55 PM 6.8 °F -5.9 °F 1.4 °F 79% 30.06 in - SE 8.1 mph - N/A Snow Light Snow
9:15 PM 6.8 °F -5.9 °F 1.4 °F 79% 30.06 in 3.0 mi SE 8.1 mph - N/A Snow Light Snow
9:35 PM 6.8 °F -4.8 °F 3.2 °F 85% 30.06 in 4.0 mi SE 6.9 mph - N/A Snow Light Snow
9:55 PM 8.6 °F -4.7 °F 3.2 °F 79% 30.05 in 9.0 mi SE 9.2 mph - N/A   Overcast
10:15 PM 8.6 °F -4.7 °F 3.2 °F 79% 30.03 in 10.0 mi SSE 9.2 mph - N/A   Overcast
10:35 PM 8.6 °F -4.7 °F 3.2 °F 79% 30.03 in 10.0 mi SSE 9.2 mph - N/A   Overcast
10:55 PM 8.6 °F -3.7 °F 5.0 °F 85% 30.02 in 10.0 mi SSE 8.1 mph - N/A   Overcast
11:15 PM 10.4 °F -2.4 °F 5.0 °F 79% 30.02 in 10.0 mi SSE 9.2 mph - N/A   Overcast
11:35 PM 10.4 °F -1.5 °F 5.0 °F 79% 30.01 in 10.0 mi SSE 8.1 mph - N/A   Overcast
11:55 PM 10.4 °F -1.5 °F 6.8 °F 85% 30.00 in 10.0 mi SE 8.1 mph - N/A   Overcast